Location: Arrodets-la-Barthe
(43.0306°N, 0.2829°E)
Time: 01:06:17
(UTC+00:00)

NOAA 19 - Pass Details

Date: 02 April 2023
Orbit: 840 x 859 km, 99.1° (Epoch: 29 May)

Event Time Altitude Azimuth Distance (km) Brightness Sun altitude
Exits shadow 19:54:59 - 170° (S) 2,824 7.6 -16.4°
Reaches altitude 10° 19:55:54 10° 171° (S) 2,463 7.3 -16.6°
Maximum altitude 20:01:22 75° 256° (WSW) 877 5.3 -17.5°
Drops below altitude 10° 20:06:51 10° 342° (NNW) 2,470 8.2 -18.4°
Sets 20:09:13 0° 345° (NNW) 3,408 9.0 -18.8°
